Weather Service Report


015 
ASUS41 KBOX 252210
RWRBOX

REGIONAL WEATHER ROUNDUP
NATIONAL WEATHER SERVICE TAUNTON MA
600 PM EDT SAT OCT 25 2014

NOTE:  "FAIR" INDICATES FEW OR NO CLOUDS BELOW 12,000 FEET WITH NO 
SIGNIFICANT WEATHER AND/OR OBSTRUCTIONS TO VISIBILITY.  THE FOLLOWING 
OBSERVATION LOCATIONS DO NOT REPORT PRESENT WEATHER...PROVINCETOWN...
SMITHFIELD...BLOCK ISLAND...KEENE...AND OXFORD.

MAZALL-252300-
EASTERN MASSACHUSETTS
  
CITY           SKY/WX    TMP DP  RH WIND       PRES   REMARKS
BOSTON         MOCLDY    61  42  49 SW8G18    29.58S                  
BEVERLY        CLEAR     58  39  49 W6        29.57S                  
LAWRENCE       CLEAR     58  41  53 W8        29.60R                  
BEDFORD        PTCLDY    57  42  57 W3        29.58R                  
BLUE HILL        N/A     57  41  55 W9        29.58F                  
NORWOOD        CLEAR     60  42  51 SW3       29.58S                  
MARSHFIELD     NOT AVBL                                               
PLYMOUTH       CLEAR     59  43  55 SW7       29.59F                  
TAUNTON        CLEAR     60  42  51 SW6       29.59F                  
NEW BEDFORD    CLEAR     57  42  57 SW8       29.60S                  
$$

MAZALL-252300-
CAPE COD AND THE ISLANDS
  
CITY           SKY/WX    TMP DP  RH WIND       PRES   REMARKS
FALMOUTH       CLEAR     57  46  67 SW14      29.60F                  
HYANNIS        CLEAR     58  44  60 SW15      29.60S                  
CHATHAM        CLEAR     57  49  74 SW8       29.61F                  
PROVINCETOWN   CLEAR     55   1  11 SW10      29.59S                  
NANTUCKET      CLEAR     58  48  69 SW15      29.63F                  
MARTHAS VNYRD  CLEAR     56  47  71 SW9       29.62F                  
$$
 
MAZALL-252300-
CENTRAL AND WESTERN MASSACHUSETTS
  
CITY           SKY/WX    TMP DP  RH WIND       PRES   REMARKS
WORCESTER      CLEAR     55  42  61 W7        29.61S                  
FITCHBURG      CLEAR     59  43  55 W5        29.61R                  
ORANGE         PTCLDY    56  45  66 SW3       29.60S                  
SPRINGFIELD    CLEAR     60  43  54 W6        29.60S                  
WESTFIELD      CLEAR     60  42  51 SW7       29.61S                  
NORTH ADAMS    CLOUDY    55  45  68 CALM      29.59F                  
PITTSFIELD     CLOUDY    56  42  59 S3        29.59F                  
$$
 
RIZALL-252300-
RHODE ISLAND
  
CITY           SKY/WX    TMP DP  RH WIND       PRES   REMARKS
PROVIDENCE     PTCLDY    58  43  57 S9        29.61F                  
NEWPORT        CLEAR     59  46  62 VRB5      29.61F                  
BLOCK ISLAND   CLEAR     61  45  55 W12       29.64S                  
SMITHFIELD     CLEAR     57  36  44 SW5       29.60S                  
WESTERLY       CLEAR     60  47  61 SW7       29.63F                  
$$
 
CTZALL-252300-
CONNECTICUT
  
CITY           SKY/WX    TMP DP  RH WIND       PRES   REMARKS
BRADLEY INTL   PTCLDY    62  42  47 SW7       29.60F                  
HARTFORD       CLEAR     62  41  46 SW12      29.61F                  
BRIDGEPORT     CLEAR     63  50  62 SW9       29.64F                  
DANBURY        CLEAR     58  42  55 CALM      29.64F                  
GROTON         CLEAR     59  49  69 W8        29.63F                  
NEW HAVEN      PTCLDY    64  49  57 SW7       29.64F                  
CHESTER        NOT AVBL                                               
MERIDEN        CLEAR     58  43  57 VRB3      29.63S                  
WILLIMANTIC    CLEAR     62  41  46 W5        29.62S                  
OXFORD         PTCLDY    59  39  47 CALM      29.63F                  
$$

MEZ002-015-021-024-NHZ003-005-008-011-012-014-VTZ005-008-252300-
NORTHERN NEW ENGLAND
  
CITY           SKY/WX    TMP DP  RH WIND       PRES   REMARKS
PORTLAND ME    MOCLDY    55  46  71 S6        29.56S                  
BANGOR ME      MOCLDY    53  39  59 S8        29.54S                  
CONCORD NH     CLOUDY    60  41  49 W7        29.57R                  
MANCHESTER NH  MOCLDY    61  40  45 SW5       29.57R                  
NASHUA NH      PTCLDY    60  43  53 W7        29.59R                  
PORTSMOUTH NH  MOCLDY    59  40  49 SW6       29.56R                  
JAFFREY NH     MOCLDY    56  43  61 W3        29.61R                  
KEENE NH       PTCLDY    54  39  58 CALM      29.60F                  
BURLINGTON VT  LGT RAIN  53  46  77 S8        29.53F                  
MT. WASHINGTON FOG       32  32 100 W26         N/A  VSB 1/16WCI  18  
$$

NYZ052-076-252300-
EASTERN NEW YORK
  
CITY           SKY/WX    TMP DP  RH WIND       PRES   REMARKS
ALBANY         MOCLDY    61  44  53 S6        29.57F                  
NEW YORK CITY  PTCLDY    66  42  41 SW10      29.64F                  
$$
 
ANZALL-252300-
MARINE OBSERVATIONS
  
STATION/POSITION TIME  TEMP    WIND        PRES    VSBY  WAVE
                       AIR SEA DIR/SP/G                  HT/PER
                 (UTC) (F)     (DEG/KT/KT) (MB)    (MI)  (FT/S)
BOSTON BUOY      NOT AVBL
BUZZARDS BAY     NOT AVBL
NANTUCKET SOUND  NOT AVBL
MASS BAY-STELLWA NOT AVBL
ISLE OF SHOALS   NOT AVBL
S OF BLOCK IS    NOT AVBL
$$

......................KEY.........................
  SKY/WX - SKY CONDITION/PRESENT WEATHER
  TMP    - TEMPERATURE IN FAHRENHEIT
  DWPT   - DEWPOINT IN FAHRENHEIT
  RH     - RELATIVE HUMIDITY IN PERCENT
  WIND   - DIRECTION AND SPEED IN MPH
  PRES   - MEAN SEA LEVEL PRESSURE IN INCHES OF HG
  WCI    - WIND CHILL INDEX
  VSB    - VISIBILITY IN MILES
  HX     - HEAT INDEX
  TC     - TEMPERATURE IN CELSIUS
  VRB    - VARIABLE WIND DIRECTION
  N/A    - NOT AVAILABLE

Return to Home page


Western Regional Climate Center, wrcc@dri.edu